CRK351 VHHH-RPVE

Flight info

Callsign CRK351
Flight time 1h 49m
Altitude 37000
Route NOMAN A461 AVMUP W16 MIA A461 VERDE W24 TAPER TAPER7A
Aircraft A320/M-SDE3FGHIRWY/LB1

Departure

Time 2026-05-07 18:40
Airport Hong Kong International Airport (VHHH)

Arrival

Time 2026-05-07 20:29
Airport Godofredo P. Ramos Airport (RPVE)
Time Latitude Longitude Altitude Speed Heading
2026-05-07 18:21 22.31103 113.91653 34 ft 0 kts 71°
2026-05-07 18:30 22.31103 113.91652 35 ft 2 kts 71°
2026-05-07 18:30 22.31094 113.91626 35 ft 4 kts 71°
2026-05-07 18:31 22.31086 113.91599 34 ft 4 kts 71°
2026-05-07 18:31 22.31078 113.91576 34 ft 4 kts 77°
2026-05-07 18:31 22.31079 113.91551 35 ft 4 kts 128°
2026-05-07 18:31 22.31099 113.91536 34 ft 3 kts 160°
2026-05-07 18:32 22.31114 113.91531 34 ft 0 kts 160°
2026-05-07 18:34 22.31110 113.91532 35 ft 3 kts 161°
2026-05-07 18:34 22.31077 113.91544 35 ft 5 kts 165°
2026-05-07 18:34 22.31029 113.91527 35 ft 13 kts 237°
2026-05-07 18:34 22.31061 113.91450 35 ft 12 kts 335°
2026-05-07 18:35 22.31134 113.91422 35 ft 10 kts 341°
2026-05-07 18:35 22.31223 113.91389 35 ft 18 kts 341°
2026-05-07 18:35 22.31338 113.91345 35 ft 16 kts 339°
2026-05-07 18:35 22.31387 113.91273 35 ft 12 kts 257°
2026-05-07 18:36 22.31359 113.91186 35 ft 15 kts 251°
2026-05-07 18:36 22.31317 113.91053 35 ft 19 kts 249°
2026-05-07 18:36 22.31273 113.90918 35 ft 19 kts 250°
2026-05-07 18:36 22.31229 113.90782 35 ft 19 kts 250°
2026-05-07 18:37 22.31183 113.90642 35 ft 20 kts 251°
2026-05-07 18:37 22.31136 113.90495 35 ft 21 kts 251°
2026-05-07 18:37 22.31088 113.90347 36 ft 21 kts 251°
2026-05-07 18:37 22.31039 113.90197 33 ft 22 kts 250°
2026-05-07 18:38 22.30988 113.90038 36 ft 23 kts 251°
2026-05-07 18:38 22.30938 113.89880 33 ft 16 kts 255°
2026-05-07 18:38 22.30971 113.89798 36 ft 12 kts 333°
2026-05-07 18:38 22.31045 113.89777 36 ft 10 kts 345°
2026-05-07 18:39 22.31096 113.89796 36 ft 7 kts 65°
2026-05-07 18:39 22.31101 113.89815 36 ft 0 kts 71°
2026-05-07 18:39 22.31119 113.89872 35 ft 31 kts 72°
2026-05-07 18:39 22.31272 113.90347 36 ft 101 kts 70°
2026-05-07 18:40 22.31566 113.91257 36 ft 153 kts 71°
2026-05-07 18:40 22.31949 113.92457 354 ft 172 kts 71°
2026-05-07 18:40 22.32326 113.93653 1123 ft 166 kts 72°
2026-05-07 18:40 22.32699 113.94855 1697 ft 176 kts 72°
2026-05-07 18:41 22.33118 113.96159 2137 ft 190 kts 71°
2026-05-07 18:41 22.33581 113.97535 2635 ft 199 kts 70°
2026-05-07 18:41 22.34078 113.98951 3173 ft 205 kts 69°
2026-05-07 18:41 22.34609 114.00406 3681 ft 215 kts 68°
2026-05-07 18:42 22.34969 114.02042 4035 ft 237 kts 96°
2026-05-07 18:42 22.34348 114.03717 4393 ft 258 kts 130°
2026-05-07 18:42 22.33099 114.05194 4977 ft 272 kts 135°
2026-05-07 18:42 22.31756 114.06662 5767 ft 278 kts 136°
2026-05-07 18:43 22.30380 114.08154 6577 ft 282 kts 136°
2026-05-07 18:43 22.28992 114.09677 7355 ft 287 kts 135°
2026-05-07 18:43 22.27593 114.11239 8140 ft 291 kts 135°
2026-05-07 18:43 22.26186 114.12835 8915 ft 295 kts 135°
2026-05-07 18:44 22.24769 114.14459 9715 ft 300 kts 134°
2026-05-07 18:44 22.23320 114.16130 10214 ft 314 kts 134°
2026-05-07 18:44 22.21771 114.17915 10411 ft 338 kts 134°
2026-05-07 18:44 22.20108 114.19829 10555 ft 361 kts 134°
2026-05-07 18:45 22.18341 114.21862 10682 ft 382 kts 134°
2026-05-07 18:45 22.16480 114.24000 10940 ft 396 kts 134°
2026-05-07 18:45 22.14578 114.26184 11479 ft 402 kts 134°
2026-05-07 18:45 22.12654 114.28392 12038 ft 406 kts 134°
2026-05-07 18:46 22.10712 114.30622 12597 ft 410 kts 134°
2026-05-07 18:46 22.08778 114.32847 13145 ft 414 kts 134°
2026-05-07 18:46 22.06801 114.35115 13668 ft 417 kts 135°
2026-05-07 18:46 22.04779 114.37435 14142 ft 421 kts 135°
2026-05-07 18:47 22.02769 114.39745 14585 ft 424 kts 134°
2026-05-07 18:47 22.00769 114.42045 15028 ft 427 kts 135°
2026-05-07 18:47 21.98724 114.44388 15478 ft 431 kts 135°
2026-05-07 18:47 21.96664 114.46742 15915 ft 434 kts 135°
2026-05-07 18:48 21.94593 114.49109 16347 ft 437 kts 135°
2026-05-07 18:48 21.92500 114.51500 16769 ft 440 kts 135°
2026-05-07 18:48 21.90391 114.53904 17182 ft 443 kts 135°
2026-05-07 18:48 21.88270 114.56324 17583 ft 446 kts 135°
2026-05-07 18:49 21.86139 114.58762 17991 ft 449 kts 135°
2026-05-07 18:49 21.83992 114.61221 18363 ft 452 kts 135°
2026-05-07 18:49 21.81832 114.63690 18709 ft 455 kts 135°
2026-05-07 18:49 21.79654 114.66171 19051 ft 457 kts 135°
2026-05-07 18:50 21.77461 114.68664 19383 ft 460 kts 135°
2026-05-07 18:50 21.75261 114.71168 19719 ft 462 kts 134°
2026-05-07 18:50 21.73044 114.73693 20043 ft 465 kts 134°
2026-05-07 18:50 21.70820 114.76225 20367 ft 468 kts 134°
2026-05-07 18:51 21.68576 114.78777 20688 ft 470 kts 134°
2026-05-07 18:51 21.66326 114.81338 20989 ft 473 kts 134°
2026-05-07 18:51 21.64063 114.83914 21293 ft 475 kts 134°
2026-05-07 18:51 21.61782 114.86506 21596 ft 478 kts 134°
2026-05-07 18:52 21.59494 114.89105 21892 ft 480 kts 134°
2026-05-07 18:52 21.57189 114.91717 22182 ft 483 kts 134°
2026-05-07 18:52 21.54872 114.94340 22473 ft 485 kts 134°
2026-05-07 18:52 21.52548 114.96974 22751 ft 487 kts 134°
2026-05-07 18:53 21.50208 114.99625 23008 ft 490 kts 134°
2026-05-07 18:53 21.47892 115.02246 23256 ft 492 kts 134°
2026-05-07 18:53 21.45531 115.04916 23502 ft 494 kts 134°
2026-05-07 18:53 21.43162 115.07593 23712 ft 496 kts 134°
2026-05-07 18:54 21.40787 115.10278 23943 ft 496 kts 134°
2026-05-07 18:54 21.38408 115.12973 24174 ft 497 kts 134°
2026-05-07 18:54 21.36027 115.15669 24398 ft 499 kts 134°
2026-05-07 18:54 21.33636 115.18375 24601 ft 500 kts 134°
2026-05-07 18:55 21.31235 115.21085 24814 ft 502 kts 134°
2026-05-07 18:55 21.28829 115.23798 25027 ft 503 kts 134°
2026-05-07 18:55 21.26411 115.26522 25235 ft 504 kts 134°
2026-05-07 18:55 21.23989 115.29247 25437 ft 506 kts 134°
2026-05-07 18:56 21.21559 115.31982 25664 ft 506 kts 134°
2026-05-07 18:56 21.19130 115.34716 25967 ft 506 kts 134°
2026-05-07 18:56 21.16711 115.37440 26253 ft 505 kts 134°
2026-05-07 18:56 21.14289 115.40167 26553 ft 504 kts 134°
2026-05-07 18:57 21.11872 115.42885 26859 ft 504 kts 134°
2026-05-07 18:57 21.09453 115.45602 27160 ft 503 kts 134°
2026-05-07 18:57 21.07038 115.48311 27477 ft 503 kts 134°
2026-05-07 18:57 21.04628 115.51017 27790 ft 502 kts 134°
2026-05-07 18:58 21.02218 115.53722 28106 ft 502 kts 134°
2026-05-07 18:58 20.99811 115.56422 28432 ft 501 kts 134°
2026-05-07 18:58 20.97406 115.59118 28753 ft 500 kts 134°
2026-05-07 18:58 20.95001 115.61806 29088 ft 500 kts 134°
2026-05-07 18:59 20.92596 115.64490 29419 ft 499 kts 134°
2026-05-07 18:59 20.90195 115.67169 29724 ft 499 kts 134°
2026-05-07 18:59 20.87823 115.69815 30021 ft 499 kts 134°
2026-05-07 18:59 20.85393 115.72531 30299 ft 499 kts 134°
2026-05-07 19:00 20.83000 115.75213 30568 ft 498 kts 134°
2026-05-07 19:00 20.80642 115.77859 30851 ft 498 kts 134°
2026-05-07 19:00 20.78251 115.80538 31141 ft 497 kts 134°
2026-05-07 19:00 20.75865 115.83204 31435 ft 497 kts 134°
2026-05-07 19:01 20.73475 115.85868 31743 ft 496 kts 134°
2026-05-07 19:01 20.71091 115.88523 32035 ft 495 kts 134°
2026-05-07 19:01 20.68709 115.91174 32336 ft 494 kts 134°
2026-05-07 19:01 20.66332 115.93818 32653 ft 493 kts 134°
2026-05-07 19:02 20.63956 115.96454 32969 ft 492 kts 134°
2026-05-07 19:02 20.61587 115.99084 33304 ft 491 kts 134°
2026-05-07 19:02 20.59227 116.01706 33617 ft 490 kts 134°
2026-05-07 19:02 20.57669 116.03439 33845 ft 489 kts 134°
2026-05-07 19:03 20.55316 116.06057 34126 ft 488 kts 134°
2026-05-07 19:03 20.52961 116.08675 34383 ft 488 kts 134°
2026-05-07 19:03 20.50613 116.11287 34631 ft 488 kts 134°
2026-05-07 19:03 20.48261 116.13899 34867 ft 488 kts 134°
2026-05-07 19:04 20.45912 116.16505 35108 ft 488 kts 134°
2026-05-07 19:04 20.43557 116.19113 35340 ft 488 kts 134°
2026-05-07 19:04 20.41207 116.21717 35566 ft 488 kts 134°
2026-05-07 19:04 20.38852 116.24321 35794 ft 488 kts 134°
2026-05-07 19:05 20.36493 116.26925 36013 ft 488 kts 134°
2026-05-07 19:05 20.34140 116.29521 36228 ft 487 kts 134°
2026-05-07 19:05 20.31787 116.32123 36424 ft 488 kts 134°
2026-05-07 19:05 20.29435 116.34726 36619 ft 488 kts 134°
2026-05-07 19:06 20.27079 116.37335 36817 ft 488 kts 134°
2026-05-07 19:06 20.19967 116.45188 36906 ft 493 kts 134°
2026-05-07 19:07 20.15201 116.50431 36905 ft 493 kts 134°
2026-05-07 19:07 20.10436 116.55679 36906 ft 493 kts 134°
2026-05-07 19:08 20.05680 116.60923 36906 ft 492 kts 134°
2026-05-07 19:08 20.00954 116.66119 36909 ft 492 kts 134°
2026-05-07 19:09 19.96244 116.71404 36911 ft 492 kts 133°
2026-05-07 19:09 19.91651 116.76796 36912 ft 492 kts 132°
2026-05-07 19:10 19.87058 116.82193 36917 ft 492 kts 132°
2026-05-07 19:10 19.82431 116.87562 36922 ft 493 kts 133°
2026-05-07 19:11 19.77793 116.92913 36922 ft 492 kts 133°
2026-05-07 19:11 19.73155 116.98270 36922 ft 492 kts 133°
2026-05-07 19:12 19.68523 117.03621 36922 ft 492 kts 133°
2026-05-07 19:12 19.63886 117.08969 36922 ft 492 kts 133°
2026-05-07 19:13 19.59251 117.14314 36911 ft 492 kts 132°
2026-05-07 19:13 19.54627 117.19663 36922 ft 492 kts 132°
2026-05-07 19:14 19.50000 117.24997 36924 ft 491 kts 132°
2026-05-07 19:14 19.45395 117.30278 36924 ft 491 kts 133°
2026-05-07 19:15 19.40761 117.35582 36920 ft 491 kts 133°
2026-05-07 19:15 19.36134 117.40893 36919 ft 490 kts 132°
2026-05-07 19:16 19.31509 117.46207 36919 ft 490 kts 132°
2026-05-07 19:16 19.26884 117.51514 36915 ft 490 kts 132°
2026-05-07 19:17 19.22256 117.56816 36915 ft 490 kts 132°
2026-05-07 19:17 19.17661 117.62069 36916 ft 490 kts 132°
2026-05-07 19:18 19.13034 117.67353 36912 ft 489 kts 132°
2026-05-07 19:18 19.08409 117.72631 36912 ft 489 kts 132°
2026-05-07 19:19 19.03787 117.77903 36912 ft 489 kts 132°
2026-05-07 19:19 18.99164 117.83176 36911 ft 489 kts 132°
2026-05-07 19:20 18.94539 117.88449 36909 ft 489 kts 132°
2026-05-07 19:20 18.89916 117.93715 36909 ft 489 kts 132°
2026-05-07 19:21 18.85291 117.98976 36911 ft 489 kts 132°
2026-05-07 19:21 18.80661 118.04230 36905 ft 489 kts 132°
2026-05-07 19:22 18.76030 118.09479 36911 ft 488 kts 132°
2026-05-07 19:22 18.71398 118.14726 36909 ft 488 kts 132°
2026-05-07 19:23 18.66798 118.19931 36906 ft 488 kts 132°
2026-05-07 19:23 18.62175 118.25172 36905 ft 488 kts 132°
2026-05-07 19:24 18.57547 118.30411 36905 ft 488 kts 132°
2026-05-07 19:24 18.52915 118.35647 36901 ft 488 kts 132°
2026-05-07 19:25 18.48278 118.40872 36902 ft 488 kts 132°
2026-05-07 19:25 18.43638 118.46095 36896 ft 488 kts 132°
2026-05-07 19:26 18.39008 118.51320 36895 ft 488 kts 132°
2026-05-07 19:26 18.34374 118.56543 36893 ft 488 kts 132°
2026-05-07 19:27 18.29739 118.61764 36894 ft 488 kts 132°
2026-05-07 19:27 18.25103 118.66976 36898 ft 488 kts 132°
2026-05-07 19:28 18.20458 118.72191 36896 ft 488 kts 132°
2026-05-07 19:28 18.15851 118.77361 36895 ft 488 kts 132°
2026-05-07 19:29 18.11205 118.82566 36891 ft 488 kts 132°
2026-05-07 19:29 18.06563 118.87768 36886 ft 488 kts 132°
2026-05-07 19:30 18.01925 118.92968 36886 ft 488 kts 133°
2026-05-07 19:30 17.96651 118.97411 36889 ft 488 kts 150°
2026-05-07 19:31 17.90704 119.00850 36888 ft 488 kts 151°
2026-05-07 19:31 17.84764 119.04297 36881 ft 488 kts 151°
2026-05-07 19:32 17.78826 119.07752 36879 ft 488 kts 151°
2026-05-07 19:32 17.72884 119.11195 36880 ft 488 kts 151°
2026-05-07 19:33 17.66945 119.14628 36883 ft 487 kts 151°
2026-05-07 19:33 17.61010 119.18063 36883 ft 487 kts 151°
2026-05-07 19:34 17.55118 119.21469 36884 ft 487 kts 151°
2026-05-07 19:34 17.49185 119.24884 36884 ft 487 kts 151°
2026-05-07 19:35 17.43258 119.28304 36885 ft 486 kts 151°
2026-05-07 19:35 17.37333 119.31725 36886 ft 486 kts 151°
2026-05-07 19:36 17.31420 119.35135 36887 ft 485 kts 151°
2026-05-07 19:36 17.25509 119.38537 36883 ft 485 kts 151°
2026-05-07 19:37 17.19601 119.41930 36882 ft 484 kts 151°
2026-05-07 19:37 17.13697 119.45319 36883 ft 484 kts 151°
2026-05-07 19:38 17.07792 119.48713 36880 ft 484 kts 152°
2026-05-07 19:38 17.01893 119.52099 36885 ft 483 kts 152°
2026-05-07 19:39 16.96009 119.55474 36888 ft 482 kts 152°
2026-05-07 19:39 16.90130 119.58844 36887 ft 481 kts 152°
2026-05-07 19:40 16.84260 119.62202 36884 ft 481 kts 152°
2026-05-07 19:40 16.78398 119.65556 36882 ft 481 kts 152°
2026-05-07 19:41 16.72575 119.68882 36886 ft 480 kts 152°
2026-05-07 19:41 16.66718 119.72228 36886 ft 480 kts 152°
2026-05-07 19:42 16.60870 119.75575 36885 ft 479 kts 151°
2026-05-07 19:42 16.55025 119.78916 36884 ft 479 kts 152°
2026-05-07 19:43 16.49175 119.82243 36883 ft 479 kts 152°
2026-05-07 19:43 16.43327 119.85573 36890 ft 479 kts 152°
2026-05-07 19:44 16.37481 119.88903 36890 ft 479 kts 152°
2026-05-07 19:44 16.31638 119.92224 36892 ft 479 kts 152°
2026-05-07 19:45 16.25796 119.95545 36893 ft 478 kts 152°
2026-05-07 19:45 16.19957 119.98867 36894 ft 478 kts 152°
2026-05-07 19:46 16.14114 120.02185 36893 ft 478 kts 152°
2026-05-07 19:46 16.08272 120.05508 36897 ft 478 kts 152°
2026-05-07 19:47 16.02434 120.08818 36902 ft 478 kts 152°
2026-05-07 19:47 15.96599 120.12122 36904 ft 477 kts 152°
2026-05-07 19:48 15.90771 120.15424 36911 ft 477 kts 152°
2026-05-07 19:48 15.84944 120.18722 36913 ft 477 kts 152°
2026-05-07 19:49 15.79161 120.21994 36923 ft 476 kts 152°
2026-05-07 19:49 15.73338 120.25281 36921 ft 476 kts 152°
2026-05-07 19:50 15.67520 120.28562 36933 ft 476 kts 152°
2026-05-07 19:50 15.61710 120.31841 36933 ft 475 kts 152°
2026-05-07 19:51 15.55900 120.35118 36937 ft 475 kts 152°
2026-05-07 19:51 15.50092 120.38395 36937 ft 475 kts 152°
2026-05-07 19:52 15.44282 120.41670 36936 ft 475 kts 152°
2026-05-07 19:52 15.38472 120.44940 36938 ft 475 kts 152°
2026-05-07 19:53 15.32668 120.48207 36939 ft 475 kts 152°
2026-05-07 19:53 15.26869 120.51477 36940 ft 475 kts 152°
2026-05-07 19:54 15.22044 120.54185 36938 ft 475 kts 152°
2026-05-07 19:54 15.16285 120.57518 36938 ft 475 kts 149°
2026-05-07 19:55 15.09872 120.61882 36939 ft 475 kts 146°
2026-05-07 19:55 15.05321 120.65137 36935 ft 475 kts 146°
2026-05-07 19:56 14.99841 120.68952 36930 ft 475 kts 147°
2026-05-07 19:56 14.94315 120.72686 36925 ft 474 kts 147°
2026-05-07 19:57 14.88819 120.76386 36916 ft 474 kts 147°
2026-05-07 19:57 14.83305 120.80129 36910 ft 474 kts 147°
2026-05-07 19:58 14.77792 120.83883 36911 ft 474 kts 147°
2026-05-07 19:58 14.72275 120.87626 36903 ft 475 kts 147°
2026-05-07 19:59 14.66755 120.91366 36905 ft 475 kts 147°
2026-05-07 19:59 14.61233 120.95109 36905 ft 475 kts 147°
2026-05-07 20:00 14.55700 120.98853 36909 ft 475 kts 148°
2026-05-07 20:00 14.49698 121.01585 36911 ft 472 kts 167°
2026-05-07 20:01 14.43200 121.02252 36911 ft 470 kts 180°
2026-05-07 20:01 14.36658 121.02310 36912 ft 470 kts 181°
2026-05-07 20:02 14.30126 121.02381 36910 ft 469 kts 181°
2026-05-07 20:02 14.23591 121.02453 36907 ft 469 kts 180°
2026-05-07 20:03 14.17064 121.02524 36898 ft 469 kts 181°
2026-05-07 20:03 14.10579 121.02586 36891 ft 469 kts 181°
2026-05-07 20:04 14.04059 121.02649 36898 ft 468 kts 181°
2026-05-07 20:04 13.97543 121.02708 36893 ft 468 kts 181°
2026-05-07 20:05 13.91038 121.02767 36892 ft 467 kts 181°
2026-05-07 20:05 13.84536 121.02835 36888 ft 467 kts 180°
2026-05-07 20:06 13.78037 121.02902 36888 ft 467 kts 181°
2026-05-07 20:06 13.71548 121.02964 36895 ft 466 kts 181°
2026-05-07 20:07 13.65068 121.03036 36893 ft 465 kts 181°
2026-05-07 20:07 13.58592 121.03100 36901 ft 465 kts 181°
2026-05-07 20:08 13.52148 121.03608 36900 ft 467 kts 168°
2026-05-07 20:08 13.46147 121.06155 36899 ft 472 kts 149°
2026-05-07 20:09 13.40721 121.09961 36899 ft 472 kts 147°
2026-05-07 20:10 13.32585 121.15680 36903 ft 473 kts 148°
2026-05-07 20:10 13.27155 121.19484 36906 ft 473 kts 148°
2026-05-07 20:11 13.21730 121.23284 36908 ft 473 kts 147°
2026-05-07 20:11 13.16329 121.27064 36755 ft 472 kts 148°
2026-05-07 20:11 13.13623 121.28960 36508 ft 471 kts 148°
2026-05-07 20:12 13.10921 121.30858 36261 ft 471 kts 148°
2026-05-07 20:12 13.08222 121.32754 36021 ft 471 kts 148°
2026-05-07 20:12 13.05517 121.34652 35777 ft 471 kts 148°
2026-05-07 20:12 13.02812 121.36546 35263 ft 472 kts 148°
2026-05-07 20:13 13.00039 121.38484 34258 ft 479 kts 148°
2026-05-07 20:13 12.97285 121.40409 33478 ft 479 kts 147°
2026-05-07 20:13 12.94557 121.42318 32354 ft 485 kts 147°
2026-05-07 20:13 12.91776 121.44262 31563 ft 483 kts 147°
2026-05-07 20:14 12.88990 121.46209 30578 ft 486 kts 146°
2026-05-07 20:14 12.86190 121.48168 29507 ft 490 kts 146°
2026-05-07 20:14 12.83364 121.50146 28320 ft 493 kts 146°
2026-05-07 20:14 12.80525 121.52134 27145 ft 495 kts 146°
2026-05-07 20:15 12.77679 121.54126 25992 ft 496 kts 145°
2026-05-07 20:15 12.74835 121.56112 24666 ft 490 kts 145°
2026-05-07 20:15 12.72020 121.58073 22937 ft 488 kts 144°
2026-05-07 20:15 12.69247 121.60001 21462 ft 476 kts 144°
2026-05-07 20:16 12.66558 121.61870 20499 ft 457 kts 144°
2026-05-07 20:16 12.63984 121.63660 19650 ft 438 kts 144°
2026-05-07 20:16 12.61469 121.65412 18820 ft 437 kts 144°
2026-05-07 20:16 12.58951 121.67165 17967 ft 438 kts 144°
2026-05-07 20:17 12.56433 121.68919 17107 ft 437 kts 144°
2026-05-07 20:17 12.53932 121.70661 16332 ft 434 kts 144°
2026-05-07 20:17 12.51448 121.72394 15564 ft 431 kts 144°
2026-05-07 20:17 12.48977 121.74117 14824 ft 428 kts 144°
2026-05-07 20:18 12.46525 121.75826 14101 ft 425 kts 144°
2026-05-07 20:18 12.44092 121.77520 13369 ft 421 kts 143°
2026-05-07 20:18 12.41716 121.79174 12676 ft 416 kts 144°
2026-05-07 20:18 12.39224 121.80625 12003 ft 412 kts 154°
2026-05-07 20:19 12.36543 121.81519 11333 ft 410 kts 166°
2026-05-07 20:19 12.33748 121.81800 11088 ft 397 kts 178°
2026-05-07 20:19 12.31056 121.81536 10969 ft 381 kts 188°
2026-05-07 20:19 12.28520 121.80994 10850 ft 364 kts 189°
2026-05-07 20:20 12.26092 121.80473 10726 ft 349 kts 189°
2026-05-07 20:20 12.23760 121.79971 10614 ft 336 kts 189°
2026-05-07 20:20 12.21521 121.79486 10496 ft 323 kts 189°
2026-05-07 20:20 12.19361 121.79018 10372 ft 312 kts 188°
2026-05-07 20:21 12.17258 121.78564 10137 ft 306 kts 188°
2026-05-07 20:21 12.15216 121.78124 10022 ft 303 kts 188°
2026-05-07 20:21 12.13160 121.77682 9880 ft 302 kts 188°
2026-05-07 20:21 12.11102 121.77241 9537 ft 304 kts 188°
2026-05-07 20:22 12.09030 121.76795 9139 ft 302 kts 188°
2026-05-07 20:22 12.06974 121.76351 8721 ft 302 kts 188°
2026-05-07 20:22 12.04931 121.75909 8319 ft 301 kts 188°
2026-05-07 20:22 12.02900 121.75470 7980 ft 297 kts 188°
2026-05-07 20:23 12.00872 121.75033 7548 ft 297 kts 188°
2026-05-07 20:23 11.98852 121.74597 7101 ft 297 kts 188°
2026-05-07 20:23 11.96825 121.74160 6657 ft 298 kts 188°
2026-05-07 20:23 11.94800 121.73723 6236 ft 297 kts 187°
2026-05-07 20:24 11.92780 121.73295 5823 ft 294 kts 184°
2026-05-07 20:24 11.90788 121.73307 5428 ft 281 kts 163°
2026-05-07 20:24 11.89003 121.74000 5036 ft 271 kts 148°
2026-05-07 20:24 11.87355 121.74856 4846 ft 260 kts 148°
2026-05-07 20:25 11.85728 121.75699 4324 ft 263 kts 148°
2026-05-07 20:25 11.84276 121.76752 3921 ft 251 kts 123°
2026-05-07 20:25 11.83726 121.78323 3648 ft 235 kts 87°
2026-05-07 20:25 11.84135 121.79922 3373 ft 229 kts 67°
2026-05-07 20:26 11.84878 121.81325 3070 ft 227 kts 62°
2026-05-07 20:26 11.85697 121.82686 2753 ft 223 kts 61°
2026-05-07 20:26 11.86493 121.84019 2429 ft 214 kts 62°
2026-05-07 20:26 11.87224 121.85300 2148 ft 203 kts 63°
2026-05-07 20:27 11.87905 121.86545 1903 ft 200 kts 64°
2026-05-07 20:27 11.88570 121.87794 1625 ft 201 kts 63°
2026-05-07 20:27 11.89220 121.89041 1356 ft 195 kts 63°
2026-05-07 20:27 11.89842 121.90248 1092 ft 189 kts 64°
2026-05-07 20:28 11.90436 121.91411 851 ft 177 kts 62°
2026-05-07 20:28 11.90981 121.92482 625 ft 165 kts 64°
2026-05-07 20:28 11.91492 121.93489 418 ft 153 kts 64°
2026-05-07 20:28 11.91957 121.94408 204 ft 139 kts 63°
2026-05-07 20:29 11.92385 121.95255 28 ft 128 kts 64°
2026-05-07 20:29 11.92724 121.95931 27 ft 82 kts 63°
2026-05-07 20:29 11.92905 121.96285 25 ft 32 kts 64°
2026-05-07 20:29 11.92978 121.96443 24 ft 15 kts 79°
2026-05-07 20:30 11.92965 121.96455 25 ft 4 kts 150°
2026-05-07 20:30 11.92930 121.96474 27 ft 4 kts 152°
2026-05-07 20:30 11.92913 121.96484 29 ft 1 kts 153°
2026-05-07 20:30 11.92886 121.96497 27 ft 7 kts 153°
2026-05-07 20:31 11.92848 121.96517 26 ft 6 kts 153°
2026-05-07 20:31 11.92812 121.96530 26 ft 5 kts 184°
2026-05-07 20:31 11.92791 121.96508 26 ft 4 kts 235°
2026-05-07 20:31 11.92781 121.96487 26 ft 3 kts 245°
2026-05-07 20:32 11.92771 121.96465 26 ft 4 kts 245°
2026-05-07 20:32 11.92756 121.96435 28 ft 5 kts 242°
2026-05-07 20:32 11.92736 121.96396 26 ft 6 kts 241°
2026-05-07 20:32 11.92717 121.96361 26 ft 5 kts 241°
2026-05-07 20:33 11.92702 121.96332 26 ft 4 kts 242°
2026-05-07 20:33 11.92676 121.96326 26 ft 5 kts 156°
2026-05-07 20:33 11.92659 121.96336 26 ft 1 kts 153°
2026-05-07 20:33 11.92656 121.96337 26 ft 0 kts 153°